Powrót do katalogu

STARLINK-35916

AktywnyŁącznośćVLEO
NORAD 66504·PAYLOAD·🇺🇸 United States

Wystrzelony Nov 15, 2025 z Cape Canaveral Space Force Station

Loading…

Następne Przeloty (najbliższe 24 godziny)

TLE

ŚwieżeSource: CelesTrak SupGP

Epoka: Sep 15, 2026, 04:08 UTC

1 66504C 25263V   26258.17270833  .00046540  00000+0  16851-2 0  2582
2 66504  43.0041   4.2730 0001797 263.9004 170.6536 15.27565707    13

Śledź STARLINK-35916 w czasie rzeczywistym z AllMySat

Download on the App Store